This is the latest recevied weather packets stored in our database for station/object K7FRY. If no packets are shown the sender has not sent any weather packets the latest 10 day(s).
| Time | Temp. | Humidity | Pressure | Rain* | Wind** | Luminosity | Snow |
|---|---|---|---|---|---|---|---|
| 1777065120 | 30° C | 17% | 1010.8 hPa | 0 mm | - | 697 W/m² | - |
| 1777064819 | 30° C | 17% | 1010.6 hPa | 0 mm | - | 714 W/m² | - |
| 1777064514 | 29.44° C | 17% | 1010.8 hPa | 0 mm | - | 695 W/m² | - |
| 1777064210 | 29.44° C | 17% | 1011.1 hPa | 0 mm | - | 724 W/m² | - |
| 1777063900 | 29.44° C | 18% | 1011 hPa | 0 mm | - | 755 W/m² | - |
| 1777063594 | 30° C | 18% | 1011.3 hPa | 0 mm | - | 769 W/m² | - |
| 1777063290 | 29.44° C | 18% | 1011.1 hPa | 0 mm | - | 772 W/m² | - |
| 1777062988 | 30° C | 18% | 1011.3 hPa | 0 mm | - | 773 W/m² | - |
| 1777062685 | 29.44° C | 18% | 1011.1 hPa | 0 mm | - | 774 W/m² | - |
| 1777062382 | 30° C | 17% | 1011.3 hPa | 0 mm | - | 768 W/m² | - |
| 1777062080 | 28.89° C | 18% | 1011.2 hPa | 0 mm | - | 740 W/m² | - |
| 1777061776 | 29.44° C | 17% | 1011.4 hPa | 0 mm | - | 769 W/m² | - |
| 1777061472 | 29.44° C | 16% | 1011.2 hPa | 0 mm | - | 790 W/m² | - |
| 1777061169 | 28.33° C | 17% | 1011.6 hPa | 0 mm | - | 789 W/m² | - |
| 1777060864 | 29.44° C | 17% | 1011.4 hPa | 0 mm | - | 795 W/m² | - |
| 1777060558 | 28.89° C | 18% | 1011.8 hPa | 0 mm | - | 800 W/m² | - |
| 1777060255 | 29.44° C | 17% | 1011.6 hPa | 0 mm | - | 799 W/m² | - |
| 1777059950 | 28.89° C | 17% | 1011.8 hPa | 0 mm | - | 799 W/m² | - |
| 1777059647 | 29.44° C | 17% | 1011.8 hPa | 0 mm | - | 787 W/m² | - |
| 1777059344 | 28.89° C | 17% | 1011.8 hPa | 0 mm | - | 776 W/m² | - |
| 1777059040 | 29.44° C | 17% | 1011.8 hPa | 0 mm | - | 783 W/m² | - |
| 1777058739 | 29.44° C | 16% | 1011.8 hPa | 0 mm | - | 791 W/m² | - |
| 1777058435 | 28.89° C | 17% | 1011.9 hPa | 0 mm | - | 793 W/m² | - |
| 1777058133 | 30° C | 16% | 1012.1 hPa | 0 mm | - | 797 W/m² | - |
| 1777057832 | 28.89° C | 16% | 1012.1 hPa | 0 mm | - | 790 W/m² | - |
* Rain latest hour (hover to see other rain measurements)
** Current wind speed in m/s (hover to see current wind gust speed)